User: anonymous   Login
Location: Unspecified
(0.0000°N, 0.0000°E)
Time: 22:45:42
(UTC+00:00)
Language:

DICE 1 - Orbit

View from above orbital plane
View from above orbital plane
View from above satellite
View from above satellite

Ground track
Ground track

The orbit data is extracted from the following two-line orbital elements,

1 37851U 11061B   17113.92194070 +.00003367 +00000-0 +18856-3 0  9998
2 37851 101.7411 313.4813 0189646 254.9408 103.0748 15.00877908298120
Epoch (UTC): 23 April 2017 22:07:35
Eccentricity: 0.0189646
inclination: 101.7411°
perigee height: 432 km
apogee height: 696 km
right ascension of ascending node: 313.4813°
argument of perigee: 254.9408°
revolutions per day: 15.00877908
mean anomaly at epoch: 103.0748°
orbit number at epoch: 29812

The dashed part of the orbit path shows where the satellite is in the earth's shadow,  

DLR